Location: Unspecified
(0.0000°N, 0.0000°E)
Time: 16:45:50
(UTC+00:00)

Vanguard 3 - Pass Details

Date: 03 February 2023
Orbit: 509 x 3249 km, 33.3° (Epoch: 20 March)

Event Time Altitude Azimuth Distance (km) Brightness Sun altitude
Rises 05:36:48 0° 277° (W) 6,976 - -8.9°
Exits shadow 05:40:42 - 270° (W) 6,162 11.0 -7.9°
Reaches altitude 10° 05:43:18 10° 265° (W) 5,625 10.8 -7.3°
Maximum altitude 05:54:58 24° 218° (SW) 3,679 10.3 -4.5°
Drops below altitude 10° 06:03:11 10° 168° (SSE) 3,839 11.0 -2.5°
Sets 06:06:37 0° 154° (SSE) 4,419 11.6 -1.7°
